DAL1276 KRDU-KATL

Flight info

Callsign DAL1276
Flight time 1h 0m
Altitude 36000
Route SHPRD4 SHPRD LEAVI OZZZI2
Aircraft A333/H-SDE3GHIJ2J3J5M1RVWXY/LB2D1

Departure

Time 2026-05-07 00:57
Airport Raleigh-Durham International Airport (KRDU)

Arrival

Time 2026-05-07 01:58
Airport Hartsfield Jackson Atlanta International Airport (KATL)
Time Latitude Longitude Altitude Speed Heading
2026-05-07 00:12 35.87734 -78.79454 428 ft 0 kts 134°
2026-05-07 00:44 35.87742 -78.79464 429 ft 3 kts 102°
2026-05-07 00:44 35.87740 -78.79484 425 ft 3 kts 64°
2026-05-07 00:45 35.87733 -78.79505 417 ft 2 kts 84°
2026-05-07 00:45 35.87732 -78.79519 417 ft 3 kts 80°
2026-05-07 00:45 35.87727 -78.79537 417 ft 3 kts 27°
2026-05-07 00:45 35.87725 -78.79539 417 ft 3 kts 15°
2026-05-07 00:46 35.87736 -78.79533 417 ft 9 kts 24°
2026-05-07 00:46 35.87753 -78.79518 418 ft 0 kts 40°
2026-05-07 00:47 35.87795 -78.79471 425 ft 14 kts 44°
2026-05-07 00:47 35.87869 -78.79381 420 ft 16 kts 44°
2026-05-07 00:47 35.87957 -78.79275 419 ft 23 kts 46°
2026-05-07 00:48 35.88093 -78.79100 424 ft 30 kts 46°
2026-05-07 00:48 35.88249 -78.78903 419 ft 33 kts 43°
2026-05-07 00:48 35.88415 -78.78701 425 ft 34 kts 46°
2026-05-07 00:48 35.88582 -78.78494 417 ft 35 kts 46°
2026-05-07 00:49 35.88769 -78.78258 421 ft 42 kts 46°
2026-05-07 00:49 35.88969 -78.77987 416 ft 44 kts 60°
2026-05-07 00:49 35.89137 -78.77724 413 ft 22 kts 40°
2026-05-07 00:49 35.89197 -78.77656 414 ft 8 kts 33°
2026-05-07 00:50 35.89228 -78.77655 417 ft 6 kts 346°
2026-05-07 00:50 35.89229 -78.77656 417 ft 0 kts 343°
2026-05-07 00:50 35.89230 -78.77656 418 ft 1 kts 343°
2026-05-07 00:51 35.89231 -78.77657 418 ft 0 kts 343°
2026-05-07 00:53 35.89244 -78.77666 424 ft 8 kts 325°
2026-05-07 00:53 35.89262 -78.77685 421 ft 1 kts 318°
2026-05-07 00:53 35.89263 -78.77686 420 ft 0 kts 318°
2026-05-07 00:53 35.89285 -78.77710 429 ft 10 kts 317°
2026-05-07 00:54 35.89294 -78.77721 427 ft 1 kts 316°
2026-05-07 00:54 35.89297 -78.77724 427 ft 0 kts 316°
2026-05-07 00:54 35.89298 -78.77725 426 ft 0 kts 316°
2026-05-07 00:54 35.89301 -78.77728 420 ft 0 kts 316°
2026-05-07 00:56 35.89322 -78.77756 422 ft 16 kts 314°
2026-05-07 00:56 35.89331 -78.77865 421 ft 14 kts 236°
2026-05-07 00:56 35.89313 -78.77891 417 ft 7 kts 229°
2026-05-07 00:57 35.89122 -78.78130 415 ft 83 kts 225°
2026-05-07 00:57 35.88494 -78.78920 504 ft 170 kts 228°
2026-05-07 00:57 35.87648 -78.79992 1241 ft 199 kts 226°
2026-05-07 00:57 35.86572 -78.81259 2124 ft 232 kts 224°
2026-05-07 00:58 35.85301 -78.82652 2980 ft 256 kts 222°
2026-05-07 00:58 35.83970 -78.84045 3716 ft 232 kts 223°
2026-05-07 00:58 35.82911 -78.85295 4069 ft 201 kts 242°
2026-05-07 00:58 35.82721 -78.87077 4362 ft 231 kts 282°
2026-05-07 00:59 35.84583 -78.90606 5724 ft 250 kts 303°
2026-05-07 00:59 35.85582 -78.92349 6060 ft 248 kts 296°
2026-05-07 00:59 35.86259 -78.94302 6761 ft 250 kts 284°
2026-05-07 01:00 35.86601 -78.96405 7931 ft 250 kts 276°
2026-05-07 01:00 35.86708 -78.98546 9207 ft 251 kts 270°
2026-05-07 01:00 35.86663 -79.00717 10336 ft 256 kts 266°
2026-05-07 01:00 35.86525 -79.02917 11218 ft 260 kts 264°
2026-05-07 01:01 35.86331 -79.05161 11762 ft 269 kts 263°
2026-05-07 01:01 35.86092 -79.07547 12362 ft 289 kts 263°
2026-05-07 01:01 35.85829 -79.10039 13298 ft 297 kts 263°
2026-05-07 01:01 35.85551 -79.12585 14232 ft 302 kts 263°
2026-05-07 01:02 35.85265 -79.15162 15166 ft 305 kts 264°
2026-05-07 01:02 35.84975 -79.17761 16125 ft 308 kts 264°
2026-05-07 01:02 35.84680 -79.20383 17058 ft 310 kts 264°
2026-05-07 01:02 35.84381 -79.23025 17970 ft 313 kts 264°
2026-05-07 01:03 35.84078 -79.25697 18779 ft 316 kts 265°
2026-05-07 01:03 35.83771 -79.28401 19500 ft 320 kts 265°
2026-05-07 01:03 35.83508 -79.31141 20221 ft 324 kts 266°
2026-05-07 01:03 35.83290 -79.33919 20915 ft 328 kts 267°
2026-05-07 01:04 35.83078 -79.36738 21621 ft 332 kts 267°
2026-05-07 01:04 35.82865 -79.39585 22291 ft 337 kts 267°
2026-05-07 01:04 35.82646 -79.42513 22625 ft 350 kts 266°
2026-05-07 01:04 35.82417 -79.45555 22952 ft 363 kts 266°
2026-05-07 01:05 35.82179 -79.48691 23203 ft 375 kts 266°
2026-05-07 01:05 35.81926 -79.51944 23440 ft 386 kts 265°
2026-05-07 01:05 35.81508 -79.55256 23648 ft 397 kts 261°
2026-05-07 01:05 35.80955 -79.58624 24008 ft 402 kts 261°
2026-05-07 01:06 35.80376 -79.62004 24466 ft 404 kts 260°
2026-05-07 01:06 35.79793 -79.65402 24863 ft 407 kts 260°
2026-05-07 01:06 35.79221 -79.68737 25261 ft 410 kts 260°
2026-05-07 01:06 35.78816 -79.71099 25574 ft 411 kts 260°
2026-05-07 01:07 35.78228 -79.74536 25987 ft 413 kts 260°
2026-05-07 01:07 35.77633 -79.78010 26398 ft 416 kts 260°
2026-05-07 01:07 35.77033 -79.81505 26857 ft 416 kts 260°
2026-05-07 01:07 35.76433 -79.84995 27307 ft 418 kts 260°
2026-05-07 01:08 35.75830 -79.88500 27651 ft 421 kts 260°
2026-05-07 01:08 35.75220 -79.92037 28019 ft 423 kts 260°
2026-05-07 01:08 35.74606 -79.95596 28381 ft 426 kts 260°
2026-05-07 01:08 35.73989 -79.99162 28709 ft 428 kts 260°
2026-05-07 01:09 35.73364 -80.02763 29034 ft 431 kts 260°
2026-05-07 01:09 35.72735 -80.06383 29352 ft 433 kts 260°
2026-05-07 01:09 35.72104 -80.10010 29631 ft 435 kts 259°
2026-05-07 01:09 35.71480 -80.13671 29918 ft 438 kts 260°
2026-05-07 01:10 35.70839 -80.17331 30228 ft 436 kts 259°
2026-05-07 01:10 35.70199 -80.20934 30599 ft 429 kts 259°
2026-05-07 01:10 35.69569 -80.24501 31107 ft 424 kts 259°
2026-05-07 01:10 35.68949 -80.28024 31628 ft 419 kts 260°
2026-05-07 01:11 35.68337 -80.31505 32168 ft 414 kts 260°
2026-05-07 01:11 35.67731 -80.34942 32702 ft 409 kts 260°
2026-05-07 01:11 35.67131 -80.38335 33280 ft 404 kts 260°
2026-05-07 01:11 35.66536 -80.41683 33855 ft 399 kts 260°
2026-05-07 01:12 35.65946 -80.44997 34366 ft 394 kts 260°
2026-05-07 01:12 35.65365 -80.48267 34831 ft 390 kts 260°
2026-05-07 01:12 35.64790 -80.51516 35277 ft 387 kts 261°
2026-05-07 01:12 35.64208 -80.54727 35698 ft 383 kts 261°
2026-05-07 01:13 35.63613 -80.57892 36123 ft 377 kts 261°
2026-05-07 01:13 35.63015 -80.61025 36248 ft 376 kts 261°
2026-05-07 01:13 35.62414 -80.64157 36061 ft 376 kts 261°
2026-05-07 01:14 35.61223 -80.70429 35983 ft 378 kts 261°
2026-05-07 01:14 35.60038 -80.76729 35982 ft 379 kts 261°
2026-05-07 01:15 35.58858 -80.83037 35970 ft 379 kts 261°
2026-05-07 01:15 35.57682 -80.89336 35970 ft 378 kts 261°
2026-05-07 01:16 35.56516 -80.95632 35980 ft 377 kts 261°
2026-05-07 01:16 35.55365 -81.01900 35990 ft 376 kts 261°
2026-05-07 01:17 35.54222 -81.08156 36001 ft 376 kts 261°
2026-05-07 01:17 35.53085 -81.14419 35997 ft 376 kts 261°
2026-05-07 01:18 35.51950 -81.20679 36001 ft 376 kts 261°
2026-05-07 01:18 35.50819 -81.26948 35998 ft 376 kts 261°
2026-05-07 01:19 35.49702 -81.33207 35982 ft 375 kts 261°
2026-05-07 01:19 35.48606 -81.39420 35978 ft 375 kts 261°
2026-05-07 01:20 35.47500 -81.45713 35967 ft 375 kts 261°
2026-05-07 01:20 35.46408 -81.51964 35955 ft 375 kts 261°
2026-05-07 01:21 35.45322 -81.58227 35969 ft 377 kts 261°
2026-05-07 01:21 35.44241 -81.64556 35983 ft 381 kts 262°
2026-05-07 01:22 35.43172 -81.70906 35983 ft 379 kts 262°
2026-05-07 01:22 35.42121 -81.77229 35994 ft 379 kts 262°
2026-05-07 01:23 35.41075 -81.83558 36007 ft 379 kts 262°
2026-05-07 01:23 35.40037 -81.89881 36008 ft 378 kts 262°
2026-05-07 01:24 35.39003 -81.96203 36008 ft 378 kts 262°
2026-05-07 01:24 35.37974 -82.02524 36008 ft 378 kts 262°
2026-05-07 01:25 35.36948 -82.08842 35997 ft 378 kts 262°
2026-05-07 01:25 35.35927 -82.15156 35989 ft 378 kts 262°
2026-05-07 01:26 35.34656 -82.21422 35976 ft 381 kts 257°
2026-05-07 01:26 35.32613 -82.27437 35967 ft 387 kts 248°
2026-05-07 01:27 35.29366 -82.32797 35959 ft 401 kts 235°
2026-05-07 01:27 35.24795 -82.36977 35926 ft 423 kts 221°
2026-05-07 01:28 35.19577 -82.40381 35244 ft 424 kts 219°
2026-05-07 01:28 35.16959 -82.42081 34199 ft 428 kts 219°
2026-05-07 01:28 35.14308 -82.43822 32797 ft 437 kts 218°
2026-05-07 01:28 35.11596 -82.45611 31199 ft 450 kts 217°
2026-05-07 01:29 35.08798 -82.47456 29450 ft 464 kts 216°
2026-05-07 01:29 35.05960 -82.49318 28831 ft 453 kts 216°
2026-05-07 01:29 35.03264 -82.51125 28643 ft 432 kts 217°
2026-05-07 01:29 35.00712 -82.52894 28451 ft 412 kts 218°
2026-05-07 01:30 34.98302 -82.54629 28289 ft 395 kts 220°
2026-05-07 01:30 34.96003 -82.56354 28102 ft 379 kts 221°
2026-05-07 01:30 34.93814 -82.58043 27898 ft 366 kts 221°
2026-05-07 01:30 34.91709 -82.59694 27670 ft 355 kts 221°
2026-05-07 01:31 34.89675 -82.61316 27424 ft 344 kts 222°
2026-05-07 01:31 34.87708 -82.62911 27181 ft 335 kts 223°
2026-05-07 01:31 34.85868 -82.64567 26895 ft 318 kts 234°
2026-05-07 01:31 34.84458 -82.66608 25960 ft 326 kts 238°
2026-05-07 01:32 34.83036 -82.68780 25240 ft 331 kts 238°
2026-05-07 01:32 34.81605 -82.71017 24548 ft 340 kts 240°
2026-05-07 01:32 34.80296 -82.73483 23706 ft 348 kts 244°
2026-05-07 01:32 34.79014 -82.75973 22807 ft 353 kts 243°
2026-05-07 01:33 34.77679 -82.78453 22173 ft 348 kts 241°
2026-05-07 01:33 34.76326 -82.80893 21333 ft 349 kts 240°
2026-05-07 01:33 34.74948 -82.83327 20588 ft 349 kts 240°
2026-05-07 01:33 34.73564 -82.85739 19945 ft 347 kts 240°
2026-05-07 01:34 34.72184 -82.88127 19326 ft 344 kts 239°
2026-05-07 01:34 34.70812 -82.90494 18677 ft 341 kts 239°
2026-05-07 01:34 34.69446 -82.92844 18042 ft 339 kts 239°
2026-05-07 01:34 34.68092 -82.95171 17358 ft 336 kts 239°
2026-05-07 01:35 34.66746 -82.97481 16702 ft 333 kts 239°
2026-05-07 01:35 34.65417 -82.99760 16205 ft 329 kts 238°
2026-05-07 01:35 34.64097 -83.02027 16040 ft 329 kts 239°
2026-05-07 01:35 34.62790 -83.04321 16015 ft 329 kts 239°
2026-05-07 01:36 34.61493 -83.06611 16016 ft 329 kts 239°
2026-05-07 01:36 34.60199 -83.08895 16026 ft 329 kts 239°
2026-05-07 01:36 34.58900 -83.11184 16031 ft 329 kts 239°
2026-05-07 01:36 34.57601 -83.13472 16031 ft 329 kts 239°
2026-05-07 01:37 34.56299 -83.15763 16049 ft 329 kts 239°
2026-05-07 01:37 34.54999 -83.18048 16043 ft 329 kts 239°
2026-05-07 01:37 34.53702 -83.20326 16025 ft 327 kts 238°
2026-05-07 01:37 34.52416 -83.22581 16040 ft 323 kts 238°
2026-05-07 01:38 34.51140 -83.24818 16043 ft 322 kts 238°
2026-05-07 01:38 34.49865 -83.27053 16042 ft 322 kts 238°
2026-05-07 01:38 34.48590 -83.29282 16040 ft 322 kts 238°
2026-05-07 01:38 34.47305 -83.31505 16036 ft 322 kts 238°
2026-05-07 01:39 34.46014 -83.33730 16032 ft 322 kts 238°
2026-05-07 01:39 34.44722 -83.35949 15978 ft 322 kts 238°
2026-05-07 01:39 34.43432 -83.38161 15979 ft 322 kts 238°
2026-05-07 01:39 34.42137 -83.40381 15978 ft 322 kts 238°
2026-05-07 01:40 34.40847 -83.42593 15979 ft 322 kts 238°
2026-05-07 01:40 34.39553 -83.44813 15993 ft 322 kts 238°
2026-05-07 01:40 34.38259 -83.47032 15898 ft 322 kts 238°
2026-05-07 01:40 34.36971 -83.49240 15315 ft 321 kts 237°
2026-05-07 01:41 34.35694 -83.51428 14680 ft 318 kts 237°
2026-05-07 01:41 34.34423 -83.53603 14085 ft 315 kts 237°
2026-05-07 01:41 34.33163 -83.55759 13439 ft 312 kts 237°
2026-05-07 01:41 34.31917 -83.57889 12753 ft 309 kts 237°
2026-05-07 01:42 34.30680 -83.60003 12207 ft 306 kts 237°
2026-05-07 01:42 34.29429 -83.62080 12028 ft 306 kts 233°
2026-05-07 01:42 34.27956 -83.63947 12009 ft 308 kts 226°
2026-05-07 01:42 34.26364 -83.65681 12010 ft 308 kts 225°
2026-05-07 01:43 34.24753 -83.67390 12011 ft 308 kts 225°
2026-05-07 01:43 34.23140 -83.69097 12010 ft 308 kts 225°
2026-05-07 01:43 34.21528 -83.70806 12027 ft 308 kts 225°
2026-05-07 01:43 34.19921 -83.72511 12029 ft 308 kts 225°
2026-05-07 01:44 34.18311 -83.74220 12029 ft 308 kts 225°
2026-05-07 01:44 34.16705 -83.75925 12027 ft 308 kts 225°
2026-05-07 01:44 34.15100 -83.77628 12023 ft 307 kts 225°
2026-05-07 01:44 34.13494 -83.79333 12021 ft 308 kts 225°
2026-05-07 01:45 34.11885 -83.81040 12019 ft 306 kts 225°
2026-05-07 01:45 34.10341 -83.82671 11991 ft 284 kts 225°
2026-05-07 01:45 34.08909 -83.84192 11993 ft 267 kts 225°
2026-05-07 01:45 34.07529 -83.85669 12002 ft 264 kts 225°
2026-05-07 01:46 34.06163 -83.87138 11706 ft 263 kts 226°
2026-05-07 01:46 34.04814 -83.88616 11253 ft 262 kts 227°
2026-05-07 01:46 34.03471 -83.90090 10783 ft 261 kts 226°
2026-05-07 01:46 34.02129 -83.91551 10357 ft 259 kts 226°
2026-05-07 01:47 34.00792 -83.92996 9902 ft 258 kts 226°
2026-05-07 01:47 33.99457 -83.94432 9382 ft 256 kts 226°
2026-05-07 01:47 33.98070 -83.95786 9054 ft 259 kts 217°
2026-05-07 01:47 33.96404 -83.96641 8999 ft 266 kts 198°
2026-05-07 01:48 33.94533 -83.96820 8997 ft 272 kts 187°
2026-05-07 01:48 33.93295 -83.96866 8907 ft 268 kts 191°
2026-05-07 01:48 33.90825 -83.97206 8278 ft 266 kts 194°
2026-05-07 01:48 33.89610 -83.97411 7979 ft 265 kts 194°
2026-05-07 01:49 33.87799 -83.97726 7573 ft 261 kts 194°
2026-05-07 01:49 33.86007 -83.98038 7171 ft 259 kts 194°
2026-05-07 01:49 33.84228 -83.98352 6751 ft 258 kts 194°
2026-05-07 01:49 33.82460 -83.98670 6313 ft 256 kts 194°
2026-05-07 01:50 33.80708 -83.98996 6019 ft 254 kts 194°
2026-05-07 01:50 33.78957 -83.99331 5974 ft 256 kts 194°
2026-05-07 01:50 33.77199 -83.99668 5866 ft 256 kts 194°
2026-05-07 01:50 33.75435 -84.00007 5426 ft 256 kts 194°
2026-05-07 01:51 33.73699 -84.00356 5099 ft 251 kts 194°
2026-05-07 01:51 33.71984 -84.00711 4993 ft 251 kts 194°
2026-05-07 01:51 33.70262 -84.01070 4986 ft 251 kts 194°
2026-05-07 01:51 33.68546 -84.01430 4985 ft 250 kts 194°
2026-05-07 01:52 33.66893 -84.01990 4987 ft 245 kts 212°
2026-05-07 01:52 33.65749 -84.03447 4989 ft 242 kts 240°
2026-05-07 01:52 33.65144 -84.05333 4988 ft 245 kts 254°
2026-05-07 01:52 33.64924 -84.07374 4983 ft 248 kts 264°
2026-05-07 01:53 33.64920 -84.09456 4981 ft 250 kts 267°
2026-05-07 01:53 33.64943 -84.11538 4981 ft 250 kts 267°
2026-05-07 01:53 33.64968 -84.13622 4980 ft 250 kts 267°
2026-05-07 01:53 33.64986 -84.15707 4956 ft 250 kts 266°
2026-05-07 01:54 33.64970 -84.17792 4748 ft 248 kts 265°
2026-05-07 01:54 33.64950 -84.19832 4409 ft 243 kts 266°
2026-05-07 01:54 33.64960 -84.21849 4047 ft 240 kts 266°
2026-05-07 01:54 33.64961 -84.23811 3725 ft 230 kts 265°
2026-05-07 01:55 33.64960 -84.25688 3410 ft 220 kts 265°
2026-05-07 01:55 33.64961 -84.27489 3135 ft 211 kts 265°
2026-05-07 01:55 33.64959 -84.29220 2872 ft 204 kts 265°
2026-05-07 01:55 33.64958 -84.30904 2617 ft 202 kts 265°
2026-05-07 01:56 33.64957 -84.32590 2350 ft 199 kts 265°
2026-05-07 01:56 33.64958 -84.34170 2112 ft 179 kts 265°
2026-05-07 01:56 33.64958 -84.35558 1867 ft 159 kts 264°
2026-05-07 01:56 33.64958 -84.36887 1677 ft 154 kts 265°
2026-05-07 01:57 33.64960 -84.38092 1511 ft 140 kts 268°
2026-05-07 01:57 33.64948 -84.39214 1346 ft 128 kts 269°
2026-05-07 01:57 33.64957 -84.40232 1166 ft 117 kts 267°
2026-05-07 01:57 33.64954 -84.41148 1023 ft 105 kts 267°
2026-05-07 01:58 33.64958 -84.41870 1010 ft 64 kts 277°
2026-05-07 01:58 33.64959 -84.42282 1011 ft 28 kts 250°
2026-05-07 01:58 33.64859 -84.42335 1010 ft 12 kts 181°
2026-05-07 01:58 33.64775 -84.42337 1009 ft 14 kts 181°
2026-05-07 01:59 33.64668 -84.42339 1009 ft 17 kts 181°
2026-05-07 01:59 33.64560 -84.42358 1009 ft 10 kts 217°
2026-05-07 01:59 33.64541 -84.42479 1010 ft 34 kts 265°
2026-05-07 01:59 33.64541 -84.42536 1010 ft 2 kts 273°
2026-05-07 02:00 33.64541 -84.42538 1010 ft 0 kts 272°
2026-05-07 02:00 33.64541 -84.42553 1010 ft 2 kts 272°
2026-05-07 02:00 33.64541 -84.42575 1010 ft 9 kts 271°
2026-05-07 02:00 33.64542 -84.42590 1010 ft 8 kts 271°